• In Deutschland
  • Länderverzeichnis
  • Für 7 Tage
  • Wassertemperatur
  • Satellitenkarten
  • Wetterkarte
  • Widgets
  • user-avatar
    Anmelden

    Stündliche Wetter Arkadia

    Heute, 17 Oktober, Mittwoch

    Zeit Temperatur Niederschläge Wind Luftdruck Luftfeuchtigkeit
    00:00 +11°C° 0 mm 1 m/S 668 mmHg 82%
    01:00 +10°C° 0 mm 2 m/S 667 mmHg 81%
    02:00 +10°C° 0 mm 2 m/S 667 mmHg 80%
    03:00 +11°C° 0 mm 1 m/S 667 mmHg 80%
    04:00 +10°C° 0 mm 1 m/S 667 mmHg 79%
    05:00 +11°C° 0 mm 1 m/S 667 mmHg 76%
    06:00 +12°C° 0 mm 1 m/S 667 mmHg 73%
    07:00 +13°C° 0 mm 1 m/S 667 mmHg 70%
    08:00 +14°C° 0 mm 1 m/S 667 mmHg 63%
    09:00 +16°C° 0 mm 1 m/S 668 mmHg 56%
    10:00 +19°C° 0 mm 1 m/S 668 mmHg 49%
    11:00 +18°C° 0 mm 2 m/S 668 mmHg 48%
    12:00 +19°C° 0 mm 2 m/S 668 mmHg 47%
    13:00 +19°C° 0 mm 2 m/S 668 mmHg 46%
    14:00 +19°C° 0 mm 2 m/S 668 mmHg 49%
    15:00 +18°C° 0 mm 2 m/S 667 mmHg 52%
    16:00 +17°C° 0 mm 2 m/S 667 mmHg 55%
    17:00 +16°C° 0 mm 1 m/S 667 mmHg 60%
    18:00 +15°C° 0 mm 1 m/S 666 mmHg 65%
    19:00 +13°C° 0 mm 1 m/S 666 mmHg 70%
    20:00 +13°C° 0 mm 1 m/S 666 mmHg 72%
    21:00 +12°C° 0 mm 1 m/S 666 mmHg 73%
    22:00 +12°C° 0 mm 1 m/S 666 mmHg 74%
    23:00 +12°C° 0 mm 1 m/S 666 mmHg 74%

    Morgen, 18 Oktober, Donnerstag

    Zeit Temperatur Niederschläge Wind Luftdruck Luftfeuchtigkeit
    00:00 +11°C° 0 mm 1 m/S 666 mmHg 74%
    01:00 +11°C° 0 mm 1 m/S 665 mmHg 74%
    02:00 +11°C° 0 mm 1 m/S 665 mmHg 74%
    03:00 +11°C° 0 mm 1 m/S 665 mmHg 73%
    04:00 +10°C° 0 mm 1 m/S 665 mmHg 72%
    05:00 +11°C° 0 mm 1 m/S 665 mmHg 70%
    06:00 +12°C° 0 mm 1 m/S 665 mmHg 68%
    07:00 +12°C° 0 mm 1 m/S 665 mmHg 66%
    08:00 +14°C° 0 mm 1 m/S 666 mmHg 60%
    09:00 +16°C° 0 mm 1 m/S 666 mmHg 55%
    10:00 +18°C° 0 mm 1 m/S 667 mmHg 49%
    11:00 +18°C° 0 mm 2 m/S 667 mmHg 48%
    12:00 +19°C° 0 mm 2 m/S 667 mmHg 47%
    13:00 +19°C° 0 mm 2 m/S 667 mmHg 45%
    14:00 +18°C° 0 mm 2 m/S 666 mmHg 48%
    15:00 +18°C° 0 mm 2 m/S 666 mmHg 51%
    16:00 +17°C° 0 mm 2 m/S 666 mmHg 55%
    17:00 +16°C° 0 mm 1 m/S 665 mmHg 60%
    18:00 +15°C° 0 mm 1 m/S 665 mmHg 65%
    19:00 +13°C° 0 mm 1 m/S 665 mmHg 70%
    20:00 +13°C° 0 mm 1 m/S 665 mmHg 71%
    21:00 +13°C° 0 mm 1 m/S 665 mmHg 73%
    22:00 +12°C° 0 mm 1 m/S 665 mmHg 74%
    23:00 +12°C° 0 mm 1 m/S 665 mmHg 74%

    übermorgen, 19 Oktober, Freitag

    Zeit Temperatur Niederschläge Wind Luftdruck Luftfeuchtigkeit
    00:00 +12°C° 0 mm 1 m/S 665 mmHg 75%
    01:00 +12°C° 0 mm 1 m/S 665 mmHg 75%
    02:00 +12°C° 0 mm 1 m/S 665 mmHg 75%
    03:00 +11°C° 0 mm 1 m/S 665 mmHg 75%
    04:00 +11°C° 0 mm 1 m/S 664 mmHg 75%
    05:00 +12°C° 0 mm 1 m/S 665 mmHg 74%
    06:00 +12°C° 0 mm 1 m/S 665 mmHg 72%
    07:00 +13°C° 0 mm 1 m/S 666 mmHg 71%
    08:00 +14°C° 0 mm 1 m/S 666 mmHg 64%
    09:00 +16°C° 0 mm 1 m/S 667 mmHg 57%
    10:00 +18°C° 0 mm 1 m/S 667 mmHg 50%
    11:00 +19°C° 0 mm 1 m/S 667 mmHg 48%
    12:00 +20°C° 0 mm 1 m/S 667 mmHg 46%
    13:00 +20°C° 0 mm 1 m/S 667 mmHg 45%
    14:00 +19°C° 0 mm 1 m/S 667 mmHg 49%
    15:00 +19°C° 0 mm 1 m/S 667 mmHg 53%
    16:00 +18°C° 0 mm 1 m/S 666 mmHg 57%
    17:00 +16°C° 0 mm 1 m/S 666 mmHg 59%
    18:00 +15°C° 0 mm 1 m/S 666 mmHg 62%
    19:00 +14°C° 0 mm 1 m/S 666 mmHg 65%
    20:00 +14°C° 0 mm 1 m/S 666 mmHg 66%
    21:00 +14°C° 0 mm 1 m/S 666 mmHg 66%
    22:00 +13°C° 0 mm 1 m/S 666 mmHg 67%
    23:00 +13°C° 0 mm 1 m/S 666 mmHg 68%

    20 Oktober, Samstag

    Zeit Temperatur Niederschläge Wind Luftdruck Luftfeuchtigkeit
    00:00 +13°C° 0 mm 1 m/S 666 mmHg 68%
    01:00 +12°C° 0 mm 1 m/S 666 mmHg 69%
    02:00 +12°C° 0 mm 1 m/S 666 mmHg 69%
    03:00 +12°C° 0 mm 1 m/S 666 mmHg 69%
    04:00 +12°C° 0 mm 1 m/S 666 mmHg 70%
    05:00 +12°C° 0 mm 1 m/S 666 mmHg 68%
    06:00 +13°C° 0 mm 1 m/S 666 mmHg 67%
    07:00 +14°C° 0 mm 1 m/S 667 mmHg 65%
    08:00 +15°C° 0 mm 1 m/S 667 mmHg 58%
    09:00 +18°C° 0 mm 1 m/S 668 mmHg 52%
    10:00 +20°C° 0 mm 1 m/S 668 mmHg 45%
    11:00 +20°C° 0 mm 1 m/S 668 mmHg 44%
    12:00 +20°C° 0 mm 2 m/S 668 mmHg 43%
    13:00 +20°C° 0 mm 2 m/S 668 mmHg 42%
    14:00 +19°C° 0 mm 2 m/S 668 mmHg 46%
    15:00 +18°C° 0 mm 2 m/S 667 mmHg 50%
    16:00 +18°C° 0 mm 2 m/S 667 mmHg 53%
    17:00 +16°C° 0 mm 1 m/S 667 mmHg 58%
    18:00 +15°C° 0 mm 1 m/S 667 mmHg 63%
    19:00 +14°C° 0 mm 1 m/S 667 mmHg 69%
    20:00 +13°C° 0 mm 1 m/S 667 mmHg 70%
    21:00 +13°C° 0 mm 1 m/S 667 mmHg 72%
    22:00 +13°C° 0 mm 1 m/S 667 mmHg 74%
    23:00 +12°C° 0 mm 1 m/S 667 mmHg 75%

    21 Oktober, Sonntag

    Zeit Temperatur Niederschläge Wind Luftdruck Luftfeuchtigkeit
    00:00 +12°C° 0 mm 1 m/S 667 mmHg 75%
    01:00 +12°C° 0 mm 1 m/S 666 mmHg 76%
    02:00 +12°C° 0 mm 1 m/S 666 mmHg 76%
    03:00 +12°C° 0 mm 1 m/S 667 mmHg 76%
    04:00 +12°C° 0 mm 1 m/S 667 mmHg 75%
    05:00 +12°C° 0 mm 1 m/S 667 mmHg 74%
    06:00 +12°C° 0 mm 1 m/S 667 mmHg 72%
    07:00 +12°C° 0 mm 2 m/S 667 mmHg 70%
    08:00 +13°C° 0 mm 2 m/S 668 mmHg 65%
    09:00 +14°C° 0 mm 2 m/S 668 mmHg 59%
    10:00 +15°C° 0 mm 2 m/S 668 mmHg 54%
    11:00 +16°C° 0.1 mm 2 m/S 668 mmHg 53%
    12:00 +16°C° 0.1 mm 2 m/S 668 mmHg 53%
    13:00 +16°C° 0.1 mm 2 m/S 667 mmHg 52%
    14:00 +15°C° 0.1 mm 2 m/S 667 mmHg 55%
    15:00 +15°C° 0.1 mm 2 m/S 667 mmHg 58%
    16:00 +14°C° 0.1 mm 1 m/S 666 mmHg 61%
    17:00 +13°C° 0.1 mm 1 m/S 666 mmHg 64%
    18:00 +13°C° 0.1 mm 1 m/S 666 mmHg 68%
    19:00 +12°C° 0.1 mm 1 m/S 666 mmHg 72%
    20:00 +12°C° 0.1 mm 1 m/S 666 mmHg 74%
    21:00 +11°C° 0.1 mm 1 m/S 665 mmHg 76%
    22:00 +10°C° 0.1 mm 0 m/S 665 mmHg 78%
    23:00 +9°C° 0 mm 0 m/S 665 mmHg 79%

    22 Oktober, Montag

    Zeit Temperatur Niederschläge Wind Luftdruck Luftfeuchtigkeit
    00:00 +10°C° 0 mm 1 m/S 664 mmHg 81%
    01:00 +10°C° 0 mm 1 m/S 664 mmHg 82%
    02:00 +9°C° 0 mm 1 m/S 664 mmHg 83%
    03:00 +9°C° 0 mm 1 m/S 663 mmHg 84%
    04:00 +9°C° 0 mm 1 m/S 663 mmHg 85%
    05:00 +9°C° 0 mm 1 m/S 663 mmHg 82%
    06:00 +10°C° 0 mm 1 m/S 663 mmHg 80%
    07:00 +10°C° 0 mm 1 m/S 663 mmHg 78%
    08:00 +12°C° 0.1 mm 1 m/S 664 mmHg 72%
    09:00 +13°C° 0.1 mm 1 m/S 664 mmHg 67%
    10:00 +14°C° 0.1 mm 2 m/S 664 mmHg 62%
    11:00 +14°C° 0.6 mm 2 m/S 664 mmHg 64%
    12:00 +13°C° 0.6 mm 2 m/S 664 mmHg 66%
    13:00 +13°C° 0.6 mm 2 m/S 663 mmHg 68%
    14:00 +13°C° 1 mm 2 m/S 663 mmHg 72%
    15:00 +12°C° 1 mm 1 m/S 663 mmHg 75%
    16:00 +12°C° 1 mm 1 m/S 663 mmHg 78%
    17:00 +11°C° 0.3 mm 1 m/S 663 mmHg 81%
    18:00 +11°C° 0.3 mm 1 m/S 663 mmHg 84%
    19:00 +9°C° 0.3 mm 0 m/S 663 mmHg 87%
    20:00 +9°C° 0.2 mm 0 m/S 663 mmHg 88%
    21:00 +9°C° 0.2 mm 0 m/S 663 mmHg 88%
    22:00 +9°C° 0.2 mm 0 m/S 663 mmHg 89%
    23:00 +9°C° 0.2 mm 0 m/S 662 mmHg 89%
    Mehr zeigen